TimeEDT,TemperatureF,Dew PointF,Humidity,Sea Level PressureIn,VisibilityMPH,Wind Direction,Wind SpeedMPH,Gust SpeedMPH,PrecipitationIn,Events,Conditions,WindDirDegrees,DateUTC
12:53 AM,44.1,39.0,82,30.14,10.0,WNW,3.5,-,N/A,,Overcast,290,2011-10-02 04:53:00
1:53 AM,44.1,39.0,82,30.13,10.0,Calm,Calm,-,N/A,,Overcast,0,2011-10-02 05:53:00
2:53 AM,43.0,37.9,82,30.13,10.0,WNW,4.6,-,N/A,,Mostly Cloudy,290,2011-10-02 06:53:00
3:53 AM,42.1,37.0,82,30.12,10.0,WNW,5.8,-,N/A,,Overcast,300,2011-10-02 07:53:00
4:53 AM,39.9,36.0,86,30.12,10.0,NW,4.6,-,N/A,,Partly Cloudy,310,2011-10-02 08:53:00
5:53 AM,39.2,35.6,87,30.12,10.0,NW,5.8,-,N/A,,Partly Cloudy,310,2011-10-02 09:53:00
6:53 AM,39.0,36.0,89,30.14,10.0,NW,4.6,-,N/A,,Overcast,310,2011-10-02 10:53:00
7:53 AM,37.9,35.1,89,30.15,10.0,NW,4.6,-,N/A,,Clear,310,2011-10-02 11:53:00
8:53 AM,39.9,36.0,86,30.16,10.0,WNW,5.8,-,N/A,,Clear,300,2011-10-02 12:53:00
9:53 AM,44.6,37.4,76,30.16,10.0,NW,5.8,-,N/A,,Clear,310,2011-10-02 13:53:00
10:53 AM,48.2,35.6,62,30.17,10.0,Variable,5.8,-,N/A,,Partly Cloudy,0,2011-10-02 14:53:00
11:53 AM,50.0,35.6,58,30.16,10.0,Variable,6.9,-,N/A,,Scattered Clouds,0,2011-10-02 15:53:00
12:53 PM,53.1,34.0,48,30.14,10.0,Variable,6.9,-,N/A,,Partly Cloudy,0,2011-10-02 16:53:00
1:53 PM,55.4,35.6,47,30.12,10.0,Variable,5.8,-,N/A,,Scattered Clouds,0,2011-10-02 17:53:00
2:53 PM,57.0,35.1,44,30.10,10.0,Variable,4.6,18.4,N/A,,Partly Cloudy,0,2011-10-02 18:53:00
3:53 PM,57.0,35.1,44,30.08,10.0,Variable,5.8,-,N/A,,Scattered Clouds,0,2011-10-02 19:53:00
4:53 PM,57.0,34.0,42,30.07,10.0,WNW,9.2,17.3,N/A,,Clear,300,2011-10-02 20:53:00
5:53 PM,57.0,34.0,42,30.08,10.0,WNW,5.8,-,N/A,,Clear,300,2011-10-02 21:53:00
6:53 PM,54.0,35.1,49,30.09,10.0,Variable,4.6,-,N/A,,Clear,0,2011-10-02 22:53:00
7:53 PM,51.1,35.1,54,30.09,10.0,West,4.6,-,N/A,,Clear,260,2011-10-02 23:53:00
8:53 PM,48.2,35.6,62,30.08,10.0,Calm,Calm,-,N/A,,Clear,0,2011-10-03 00:53:00
9:53 PM,48.0,36.0,63,30.09,10.0,WSW,3.5,-,N/A,,Mostly Cloudy,250,2011-10-03 01:53:00
10:53 PM,48.9,36.0,61,30.09,10.0,WSW,3.5,-,N/A,,Overcast,240,2011-10-03 02:53:00
11:53 PM,48.9,36.0,61,30.10,10.0,West,3.5,-,N/A,,Overcast,260,2011-10-03 03:53:00